Location: Unspecified
(40.7945°N, 0.0000°E)
Time: 15:22:18
(UTC+00:00)

S-56A Canister/Altair - Visible Passes

Search period start: 25 January 2021 00:00
Search period end: 04 February 2021 00:00
Orbit: 633 x 2499 km, 38.9° (Epoch: 24 January)

Date Brightness Start Highest point End Pass type
(mag) Time Alt. Az. Time Alt. Az. Time Alt. Az.
25 Jan 8.0 04:39:55 52° ESE 04:39:55 52° ESE 04:44:11 10° E visible
25 Jan 8.6 06:37:45 10° W 06:42:23 39° SSW 06:48:38 10° SE visible
26 Jan 9.3 04:09:02 25° ESE 04:09:02 25° ESE 04:11:20 10° E visible
26 Jan 8.3 06:06:27 17° W 06:09:48 41° SSW 06:15:39 10° SE visible
27 Jan 10.2 03:38:10 12° E 03:38:10 12° E 03:38:34 10° E visible
27 Jan 8.0 05:35:35 32° WSW 05:37:15 44° SSW 05:42:44 10° SE visible
28 Jan 7.7 05:04:45 48° SSW 05:04:45 48° SSW 05:09:53 10° ESE visible
29 Jan 8.6 04:33:54 34° SE 04:33:54 34° SE 04:37:07 10° ESE visible
29 Jan 9.3 06:32:08 10° WSW 06:35:34 19° SSW 06:39:39 10° SSE visible
30 Jan 9.7 04:03:05 18° ESE 04:03:05 18° ESE 04:04:24 10° ESE visible
30 Jan 9.0 06:00:31 14° WSW 06:03:00 21° SSW 06:07:04 10° SSE visible
31 Jan 8.7 05:29:44 22° SW 05:30:28 23° SSW 05:34:31 10° SSE visible
01 Feb 8.8 04:58:58 23° S 04:58:58 23° S 05:02:00 10° SSE visible
02 Feb 9.5 04:28:15 16° SSE 04:28:15 16° SSE 04:29:31 10° SE visible
03 Feb 10.9 21:02:31 10° SSW 21:03:15 12° SSW 21:03:15 12° SSW visible
